Temp
-0 -1 -1 -1 -2 -1 -2 -1 -2 -2 -2 -3 -3 -3 -3 -3 -4 -4 -4 -3 -3 -3 -3 -3 -3 -3 -3
-1 -2 -1 -2 -2 -2 -2 -2 -3 -3 -3 -4 -4 -5 -5 -4 -4 -4 -3 -3 -3 -3 -3 -3 -3 -3 -3
-2 -2 -2 -2 -3 -4 -4 -4 -4 -4 -4 -4 -5 -4 -5 -5 -4 -4 -4 -4 -4 -4 -4 -4 -5 -5 -5
-2 -2 -3 -3 -4 -4 -4 -4 -4 -4 -5 -5 -5 -5 -5 -5 -5 -5 -5 -5 -6 -6 -6 -6 -6 -7 -7
-3 -3 -3 -3 -4 -4 -5 -5 -5 -5 -5 -6 -6 -6 -6 -6 -7 -7 -7 -7 -7 -7 -7 -7 -7 -7 -7
-4 -3 -3 -4 -4 -4 -5 -5 -6 -6 -6 -7 -7 -8 -8 -8 -9 -8 -8 -8 -8 -8 -8 -8 -8 -8 -8
-3 -3 -4 -4 -5 -5 -5 -6 -7 -7 -7 -8 -8 -9 -9 -9 -9 -9 -9 -9 -8 -8 -9 -9 -8 -8 -8
-4 -4 -4 -5 -5 -6 -7 -7 -8 -8 -8 -9 -9 -9 -9 -9 -9 -9 -9 -9 -9 -9 -9 -9 -9 -9 -8
-4 -4 -4 -5 -5 -6 -7 -7 -8 -8 -8 -8 -9 -9 -9 -10 -10 -10 -10 -10 -10 -10 -10 -10 -10 -9 -9
-4 -5 -5 -6 -6 -7 -7 -7 -8 -8 -8 -8 -9 -9 -9 -10 -10 -11 -10 -10 -10 -10 -10 -10 -10 -9 -9
-5 -5 -6 -6 -7 -7 -8 -8 -8 -9 -9 -9 -9 -9 -9 -9 -10 -10 -10 -10 -10 -10 -10 -10 -10 -10 -10
-6 -6 -7 -7 -8 -8 -8 -9 -9 -9 -10 -9 -9 -9 -9 -9 -9 -10 -10 -10 -10 -11 -11 -10 -10 -10 -10
-7 -8 -8 -8 -9 -9 -9 -9 -9 -10 -10 -10 -10 -10 -10 -10 -10 -10 -10 -10 -11 -11 -11 -10 -10 -11 -11
-8 -8 -9 -9 -9 -9 -9 -10 -10 -10 -11 -11 -11 -10 -10 -11 -11 -11 -11 -11 -11 -11 -11 -11 -11 -11 -11
-9 -9 -9 -9 -10 -10 -10 -10 -10 -10 -11 -11 -11 -11 -11 -11 -11 -11 -11 -11 -12 -12 -11 -11 -10 -11 -11
-10 -10 -10 -10 -10 -11 -11 -11 -11 -11 -11 -11 -11 -12 -12 -11 -12 -12 -12 -12 -12 -12 -11 -11 -10 -11 -11
-10 -10 -11 -11 -11 -11 -11 -11 -12 -12 -12 -12 -12 -12 -12 -11 -12 -12 -12 -12 -12 -12 -12 -11 -11 -11 -11
Height
3040 3044 3043 3042 3039 3044 3044 3043 3042 3041 3041 3040 3040 3040 3039 3039 3037 3036 3035 3035 3034 3034 3033 3033 3032 3032 3033
3027 3030 3031 3035 3034 3036 3032 3032 3030 3031 3029 3028 3028 3027 3026 3026 3027 3025 3024 3023 3021 3020 3019 3019 3018 3018 3017
3024 3023 3025 3025 3024 3024 3024 3021 3021 3020 3018 3019 3018 3017 3017 3016 3014 3013 3012 3011 3009 3008 3007 3006 3004 3004 3003
3016 3016 3018 3016 3015 3014 3014 3013 3013 3011 3009 3008 3006 3006 3004 3003 3001 3000 2998 2997 2996 2995 2994 2994 2993 2993 2992
3011 3010 3008 3007 3006 3005 3004 3002 3002 3000 2999 2998 2997 2995 2993 2991 2989 2987 2986 2986 2985 2985 2984 2984 2983 2982 2981
3004 3002 3000 2998 2998 2997 2995 2994 2992 2989 2987 2987 2981 2983 2981 2980 2979 2979 2978 2977 2976 2975 2974 2974 2973 2972 2971
2998 2996 2993 2991 2989 2987 2984 2982 2981 2978 2977 2977 2974 2974 2974 2973 2973 2972 2971 2969 2968 2966 2965 2964 2963 2962 2961
2989 2986 2983 2980 2978 2976 2973 2972 2970 2969 2971 2971 2970 2970 2969 2968 2967 2966 2964 2961 2959 2957 2956 2954 2953 2951 2950
2978 2975 2973 2970 2968 2967 2967 2966 2965 2964 2964 2966 2965 2965 2965 2964 2962 2960 2957 2955 2952 2950 2947 2945 2942 2940 2938
2971 2969 2967 2965 2965 2964 2963 2962 2962 2961 2959 2960 2960 2959 2961 2960 2958 2955 2952 2949 2945 2942 2938 2935 2932 2929 2928
2964 2963 2962 2961 2960 2959 2959 2959 2958 2957 2954 2953 2955 2952 2950 2951 2952 2948 2945 2941 2938 2934 2930 2927 2923 2920 2917
2960 2958 2957 2956 2955 2954 2953 2953 2952 2951 2948 2945 2946 2943 2941 2939 2939 2940 2936 2933 2930 2926 2923 2919 2916 2912 2908
2955 2954 2952 2951 2950 2949 2948 2947 2946 2944 2941 2938 2936 2935 2932 2930 2928 2929 2925 2927 2922 2918 2914 2911 2907 2903 2900
2950 2949 2948 2947 2945 2944 2943 2941 2939 2937 2934 2931 2928 2926 2924 2921 2919 2920 2917 2912 2913 2909 2904 2901 2897 2893 2890
2945 2943 2941 2940 2938 2936 2935 2934 2932 2930 2928 2924 2920 2917 2915 2913 2910 2910 2907 2905 2900 2898 2893 2890 2888 2885 2881
2939 2937 2935 2933 2932 2929 2927 2924 2922 2920 2918 2915 2912 2909 2906 2905 2902 2900 2898 2894 2892 2888 2883 2878 2877 2875 2871
2933 2931 2929 2926 2924 2922 2919 2917 2914 2911 2909 2906 2903 2899 2895 2894 2895 2891 2887 2884 2879 2876 2872 2867 2863 2862 2858
Wind_Speed
44 37 36 36 31 23 32 33 33 36 38 38 38 40 41 42 43 41 42 43 41 41 42 43 42 44 43
30 25 24 28 31 33 34 34 33 36 35 35 33 34 33 34 37 39 40 41 41 42 43 44 46 46 47
29 25 30 32 32 30 31 30 30 30 33 32 33 34 34 36 38 40 40 42 43 45 46 45 44 43 41
32 31 33 32 34 31 30 29 29 30 32 33 35 35 36 38 40 41 42 42 42 41 37 34 32 32 32
30 33 35 34 33 32 31 30 31 34 34 36 36 37 38 40 39 38 34 29 27 28 29 30 30 30 30
29 30 31 30 31 33 34 33 34 39 38 35 40 35 33 24 20 20 22 25 27 29 30 30 29 29 29
28 30 32 34 36 37 38 38 38 37 33 26 24 15 13 15 17 19 21 24 27 29 29 29 29 29 29
33 35 35 35 34 31 28 24 21 16 8 9 12 11 11 14 16 19 23 25 28 29 30 30 30 30 30
33 33 31 27 23 19 14 10 10 12 13 10 14 12 12 15 17 20 24 27 29 30 30 31 31 32 32
23 20 17 14 12 12 10 10 11 14 20 17 17 19 16 15 18 22 25 28 28 29 30 31 32 34 34
15 13 12 12 12 12 12 14 15 16 22 22 20 24 26 22 16 21 23 25 27 28 31 32 33 34 34
13 12 12 12 13 14 16 17 18 19 23 26 24 26 27 26 21 16 18 22 24 27 29 31 31 32 32
13 13 13 14 15 16 18 19 19 21 23 26 27 27 27 26 25 19 23 20 24 28 28 29 30 30 28
15 15 15 16 18 19 19 21 20 21 23 26 28 28 27 28 29 25 27 30 27 29 30 30 29 29 28
17 17 18 19 20 21 22 22 22 21 22 25 27 28 28 30 31 30 31 30 32 32 32 32 29 26 26
19 20 20 22 22 22 24 24 23 24 24 25 27 29 31 31 33 34 32 33 32 33 33 35 31 28 29
21 22 23 23 23 23 24 25 25 26 25 26 28 32 34 34 30 33 33 34 35 34 33 34 35 33 34
Wind_Direction
264 269 278 281 271 282 289 290 287 284 277 272 272 271 270 273 274 276 275 276 277 277 279 281 281 278 277
290 296 279 292 292 289 289 287 283 272 275 279 276 271 272 278 278 277 276 278 279 279 278 278 278 279 279
297 294 297 294 292 294 286 278 281 281 280 280 280 282 281 277 277 276 277 278 277 278 280 281 280 279 277
291 290 291 293 295 298 291 286 283 279 279 279 279 279 278 279 278 278 278 279 280 280 278 276 276 276 276
282 284 290 290 291 291 289 289 287 285 281 277 279 279 278 278 279 279 278 276 274 275 278 280 281 281 281
294 292 291 293 291 289 287 286 284 283 281 284 281 279 276 275 270 274 278 279 281 283 284 287 287 286 284
288 288 288 289 289 290 290 288 284 280 283 273 269 262 264 271 277 282 283 285 287 289 291 293 291 288 284
287 289 291 292 291 291 290 288 284 281 267 244 266 268 278 280 285 286 287 289 292 294 297 299 297 293 287
297 297 296 296 297 294 290 282 279 281 279 264 274 272 271 275 282 285 286 290 292 293 296 297 297 294 291
291 290 290 289 286 285 282 276 275 279 283 285 283 280 269 267 271 273 275 281 286 292 295 297 297 294 293
294 290 286 286 285 280 278 277 278 277 280 284 284 286 287 285 270 272 276 279 284 288 291 295 297 296 294
280 276 274 274 276 280 280 279 280 282 285 289 291 290 291 293 294 285 282 286 292 290 291 292 295 295 293
271 268 271 276 277 277 279 281 283 284 284 286 290 290 292 294 295 301 299 293 297 295 294 295 299 298 292
274 277 278 278 278 278 279 281 283 283 286 288 289 290 291 294 294 301 302 304 304 302 300 299 300 301 296
278 278 279 280 283 285 286 285 286 285 286 288 287 289 292 292 293 299 301 304 304 303 300 297 296 300 295
279 279 280 282 283 286 288 290 291 292 294 292 290 289 290 288 293 295 297 298 297 299 300 298 296 303 302
280 282 284 285 287 288 289 291 293 294 294 294 293 291 290 292 292 294 299 298 298 299 302 303 302 306 301